FW7404 Weather Reports


time (UTC)temp
F
wind
direction
speed
knots
gust
knots
rain 1hr
in
rain 24hr
in
rain mn
in
humidity
%
barometer
mb
20260503193039 62 211 6.1 12.2 0.00 0.00 0.00 35 1010.1
20260503192535 62 230 3.5 17.4 0.00 0.00 0.00 36 1010.0
20260503192031 63 273 6.1 13.0 0.00 0.00 0.00 34 1010.2
20260503191528 64 139 2.6 4.3 0.00 0.00 0.00 36 1010.3
20260503191025 64 264 2.6 7.8 0.00 0.00 0.00 35 1010.4
20260503190522 63 10 4.3 17.4 0.00 0.00 0.00 34 1010.5
20260503190019 64 215 5.2 12.2 0.00 0.00 0.00 35 1010.5
20260503185515 63 324 4.3 13.0 0.00 0.00 0.00 34 1010.6
20260503185015 63 246 12.2 18.2 0.00 0.00 0.00 33 1010.6
20260503184512 62 276 3.5 9.6 0.00 0.00 0.00 35 1010.7
20260503184008 61 203 3.5 13.0 0.00 0.00 0.00 34 1010.6
20260503183505 61 141 8.7 19.1 0.00 0.00 0.00 34 1010.6
20260503183002 61 297 7.8 19.1 0.00 0.00 0.00 34 1010.7
20260503182501 63 290 10.4 15.6 0.00 0.00 0.00 34 1010.7
20260503181958 61 186 7.8 8.7 0.00 0.00 0.00 34 1011.1
20260503181455 62 303 11.3 14.8 0.00 0.00 0.00 33 1011.1
20260503180950 63 268 5.2 18.2 0.00 0.00 0.00 34 1011.0
20260503180449 63 110 2.6 13.0 0.00 0.00 0.00 36 1011.0
20260503175945 62 275 7.0 9.6 0.00 0.00 0.00 35 1011.3
20260503175444 62 100 3.5 7.8 0.00 0.00 0.00 36 1011.3
20260503174939 60 28 4.3 19.1 0.00 0.00 0.00 36 1011.4
20260503174437 60 333 7.8 13.0 0.00 0.00 0.00 38 1011.4
20260503173932 61 234 3.5 7.8 0.00 0.00 0.00 40 1011.4
20260503173428 60 220 7.0 8.7 0.00 0.00 0.00 38 1011.7
20260503172925 60 261 5.2 11.3 0.00 0.00 0.00 39 1011.8
20260503172423 59 313 4.3 14.8 0.00 0.00 0.00 39 1011.8
20260503171919 59 188 5.2 11.3 0.00 0.00 0.00 39 1011.7
20260503171416 59 289 4.3 15.6 0.00 0.00 0.00 39 1012.0
20260503170913 59 272 4.3 6.1 0.00 0.00 0.00 41 1011.9
20260503170409 59 290 5.2 7.8 0.00 0.00 0.00 39 1011.8
20260503150802 58 234 7.0 7.8 0.00 0.00 0.00 39 1013.1
20260503150257 59 320 7.8 9.6 0.00 0.00 0.00 38 1013.1
20260503140222 54 195 7.8 13.0 0.00 0.00 0.00 43 1013.3
20260503131151 51 279 3.5 5.2 0.00 0.00 0.00 49 1013.5
20260503130649 50 186 4.3 6.1 0.00 0.00 0.00 50 1013.6
20260503130147 49 264 1.7 6.1 0.00 0.00 0.00 51 1013.5
20260503120112 45 276 2.6 6.1 0.00 0.00 0.00 54 1013.9
20260503110539 41 153 1.7 4.3 0.00 0.00 0.00 58 1013.8
20260503090420 39 286 1.7 1.7 0.00 0.00 0.00 57 1014.6
20260503081347 37 306 0.0 0.9 0.00 0.00 0.00 59 1014.9
20260503080843 37 308 0.0 0.0 0.00 0.00 0.00 59 1014.8
20260503080340 37 320 0.0 1.7 0.00 0.00 0.00 59 1014.5
20260503072817 36 300 0.0 0.9 0.00 0.00 0.00 62 1014.8
20260503072314 36 289 1.7 2.6 0.00 0.00 0.00 62 1015.0
20260503071810 36 284 0.9 0.9 0.00 0.00 0.00 62 1015.1
20260503071308 35 302 0.0 1.7 0.00 0.00 0.00 63 1014.9
20260503070803 36 302 0.0 1.7 0.00 0.00 0.00 63 1014.9
20260503070302 36 312 0.0 0.9 0.00 0.00 0.00 62 1015.0
20260503060221 37 296 0.0 0.9 0.00 0.00 0.00 63 1015.5
20260503054708 37 290 0.9 0.9 0.00 0.00 0.00 64 1015.5
20260503054205 36 310 0.0 1.7 0.00 0.00 0.00 64 1015.6
20260503053703 36 318 0.9 0.9 0.00 0.00 0.00 66 1015.8
20260503053201 35 302 0.0 0.9 0.00 0.00 0.00 68 1015.6
20260503052657 35 303 0.0 0.9 0.00 0.00 0.00 70 1015.8
20260503052153 35 298 0.0 0.9 0.00 0.00 0.00 72 1015.6
20260503051649 34 291 0.0 0.0 0.00 0.00 0.00 72 1015.6
20260503051147 34 281 0.0 0.9 0.00 0.00 0.00 74 1015.8
20260503050643 33 287 0.0 0.0 0.00 0.00 0.00 76 1015.5
20260503050140 33 287 0.0 0.0 0.00 0.00 0.00 77 1015.7
20260503045637 33 283 0.0 0.0 0.00 0.00 0.00 78 1015.7
20260503045134 32 288 0.0 0.0 0.00 0.00 0.00 81 1015.9
20260503044631 32 288 0.0 0.0 0.00 0.00 0.00 81 1015.6
20260503044129 32 287 0.0 0.0 0.00 0.00 0.00 82 1015.7
20260503043625 31 287 0.0 0.0 0.00 0.00 0.00 81 1015.8
20260503043122 32 287 0.0 0.0 0.00 0.00 0.00 81 1015.7
20260503042619 32 286 0.0 0.0 0.00 0.00 0.00 81 1015.7
20260503042115 32 286 0.0 0.0 0.00 0.00 0.00 81 1015.6
20260503041612 32 288 0.0 0.0 0.00 0.00 0.00 81 1015.9
20260503041110 32 288 0.0 0.0 0.00 0.00 0.00 81 1015.7
20260503040606 32 288 0.0 0.0 0.00 0.00 0.00 81 1015.8
20260503040103 32 288 0.0 0.0 0.00 0.00 0.00 82 1015.8
20260503035600 32 288 0.0 0.0 0.00 0.00 0.00 82 1016.0
20260503035058 32 288 0.0 0.0 0.00 0.00 0.00 82 1015.9
20260503034555 33 288 0.0 0.0 0.00 0.00 0.00 82 1016.0
20260503034052 32 288 0.0 0.0 0.00 0.00 0.00 82 1016.0
20260503033549 32 288 0.0 0.0 0.00 0.00 0.00 82 1015.9
20260503033047 32 288 0.0 0.0 0.00 0.00 0.00 82 1016.3
20260503032545 33 288 0.0 0.0 0.00 0.00 0.00 82 1015.9
20260503032043 32 287 0.0 0.0 0.00 0.00 0.00 82 1015.9
20260503031540 33 287 0.0 0.0 0.00 0.00 0.00 82 1015.8
20260503031038 33 287 0.0 0.9 0.00 0.00 0.00 82 1016.0
20260503030533 33 273 0.0 0.0 0.00 0.00 0.00 82 1015.9
20260503030031 33 273 0.0 0.0 0.00 0.00 0.00 82 1016.0
20260503025527 33 273 0.0 0.0 0.00 0.00 0.00 81 1015.9
20260503025025 34 273 0.0 0.0 0.00 0.00 0.00 81 1016.0
20260503024521 34 273 0.0 0.0 0.00 0.00 0.00 81 1016.3
20260503024018 34 273 0.0 0.0 0.00 0.00 0.00 80 1016.0
20260503023515 34 273 0.0 0.0 0.00 0.00 0.00 80 1016.2
20260503023012 35 273 0.0 0.0 0.00 0.00 0.00 79 1016.3
20260503022508 35 273 0.0 0.0 0.00 0.00 0.00 78 1016.2
20260503022003 35 273 0.0 0.0 0.00 0.00 0.00 76 1016.2
20260503021500 35 273 0.0 0.0 0.00 0.00 0.00 76 1016.2
20260503020957 35 273 0.0 0.0 0.00 0.00 0.00 76 1016.2
20260503020455 36 273 0.0 0.0 0.00 0.00 0.00 75 1016.3
20260503015951 36 273 0.0 0.0 0.00 0.00 0.00 75 1016.0
20260503015448 37 273 0.0 0.0 0.00 0.00 0.00 73 1016.2
20260503014944 37 274 0.0 0.0 0.00 0.00 0.00 72 1016.0
20260503014441 37 264 0.0 0.9 0.00 0.00 0.00 71 1015.9
20260503013939 38 236 0.0 0.0 0.00 0.00 0.00 69 1015.8
20260503013436 38 236 0.0 0.0 0.00 0.00 0.00 68 1015.8
20260503012933 38 236 0.0 0.0 0.00 0.00 0.00 67 1016.0
20260503012431 39 236 0.0 0.9 0.00 0.00 0.00 67 1016.0
20260503011927 40 231 0.0 0.9 0.00 0.00 0.00 64 1015.8
20260503011424 40 218 0.0 0.0 0.00 0.00 0.00 60 1015.8
20260503010921 41 218 0.0 0.0 0.00 0.00 0.00 59 1015.9
20260503010418 41 218 0.0 0.0 0.00 0.00 0.00 57 1015.9
20260503005915 42 218 0.0 0.0 0.00 0.00 0.00 57 1015.6
20260503005412 42 218 0.0 0.0 0.00 0.00 0.00 57 1015.7
20260503004909 43 217 0.9 0.9 0.00 0.00 0.00 57 1015.6
20260503004406 43 240 0.0 0.0 0.00 0.00 0.00 56 1015.6
20260503003904 44 241 0.0 0.0 0.00 0.00 0.00 53 1015.6
20260503003400 44 241 0.0 0.0 0.00 0.00 0.00 51 1015.6
20260503002857 44 240 0.0 0.9 0.00 0.00 0.00 51 1015.8
20260503002355 45 254 0.0 0.9 0.00 0.00 0.00 49 1015.6
20260503001850 45 277 0.9 0.9 0.00 0.00 0.00 48 1015.8
20260503001347 45 200 0.9 1.7 0.00 0.00 0.00 48 1015.5
20260503000845 46 227 0.0 0.9 0.00 0.00 0.00 48 1015.7
20260503000342 46 273 0.0 0.9 0.00 0.00 0.00 48 1015.6
20260502235838 46 295 1.7 2.6 0.00 0.00 0.00 45 1015.7
20260502235336 47 324 0.0 0.9 0.00 0.00 0.00 44 1015.6
20260502234833 47 298 0.9 1.7 0.00 0.00 0.00 44 1015.7
20260502234330 47 259 0.9 2.6 0.00 0.00 0.00 44 1015.7
20260502233826 47 291 0.9 2.6 0.00 0.00 0.00 44 1015.5
20260502233322 47 282 2.6 4.3 0.00 0.00 0.00 43 1015.7
20260502232819 47 265 1.7 1.7 0.00 0.00 0.00 44 1015.6
20260502232316 47 293 2.6 4.3 0.00 0.00 0.00 43 1015.9
20260502231812 47 302 1.7 4.3 0.00 0.00 0.00 43 1015.7
20260502231310 47 292 0.9 2.6 0.00 0.00 0.00 43 1015.8
20260502230808 47 309 2.6 2.6 0.00 0.00 0.00 44 1015.8
20260502230306 47 285 0.9 1.7 0.00 0.00 0.00 44 1015.8
20260502225802 47 338 0.9 4.3 0.00 0.00 0.00 44 1015.8
20260502225259 47 323 3.5 4.3 0.00 0.00 0.00 42 1015.7
20260502224755 47 299 2.6 6.1 0.00 0.00 0.00 42 1015.7
20260502224252 47 250 1.7 6.1 0.00 0.00 0.00 42 1015.7
20260502223749 47 285 2.6 5.2 0.00 0.00 0.00 43 1015.8
20260502223248 47 338 2.6 5.2 0.00 0.00 0.00 43 1015.8
20260502222745 48 284 1.7 4.3 0.00 0.00 0.00 41 1015.5
20260502222242 48 326 2.6 2.6 0.00 0.00 0.00 42 1015.8
20260502221738 47 303 0.9 2.6 0.00 0.00 0.00 43 1015.7
20260502221234 47 290 1.7 6.1 0.00 0.00 0.00 42 1015.9
20260502220731 47 291 6.1 7.0 0.00 0.00 0.00 43 1015.9
20260502220227 47 238 3.5 5.2 0.00 0.00 0.00 42 1015.6
20260502215724 47 297 3.5 7.8 0.00 0.00 0.00 41 1015.8
20260502215221 48 320 3.5 7.0 0.00 0.00 0.00 41 1015.9
20260502214718 48 240 4.3 7.0 0.00 0.00 0.00 39 1015.8
20260502214215 49 8 5.2 7.8 0.00 0.00 0.00 40 1015.9
20260502213713 47 325 2.6 4.3 0.00 0.00 0.00 42 1016.3
20260502213210 47 331 5.2 6.1 0.00 0.00 0.00 41 1015.8
20260502212708 47 293 2.6 4.3 0.00 0.00 0.00 42 1016.0
20260502212206 47 313 2.6 6.1 0.00 0.00 0.00 41 1015.7
20260502211702 47 347 4.3 5.2 0.00 0.00 0.00 41 1015.8
20260502211159 47 5 2.6 5.2 0.00 0.00 0.00 43 1016.3
20260502210656 47 331 1.7 4.3 0.00 0.00 0.00 41 1015.8
20260502210153 48 279 3.5 4.3 0.00 0.00 0.00 43 1016.0
20260502205650 47 285 4.3 7.0 0.00 0.00 0.00 41 1016.0
20260502205147 47 247 0.9 4.3 0.00 0.00 0.00 41 1015.9
20260502204643 47 275 3.5 5.2 0.00 0.00 0.00 42 1015.9
20260502204141 47 275 1.7 4.3 0.00 0.00 0.00 44 1016.0
20260502203638 46 336 3.5 6.1 0.00 0.00 0.00 43 1016.2
20260502203137 46 295 1.7 4.3 0.00 0.00 0.00 44 1016.4
20260502202631 46 324 4.3 7.0 0.00 0.00 0.00 42 1016.3
20260502202129 46 327 5.2 7.8 0.00 0.00 0.00 41 1016.2
20260502201625 47 258 1.7 6.1 0.00 0.00 0.00 42 1016.4
20260502201122 47 271 3.5 7.8 0.00 0.00 0.00 40 1016.2
20260502200618 47 326 3.5 4.3 0.00 0.00 0.00 42 1016.4
20260502200115 46 296 3.5 4.3 0.00 0.00 0.00 44 1016.4
20260502195614 47 328 3.5 7.0 0.00 0.00 0.00 41 1016.4
20260502195109 47 327 1.7 6.1 0.00 0.00 0.00 41 1016.5
20260502194606 47 303 4.3 6.1 0.00 0.00 0.00 42 1016.7
20260502194102 46 110 0.9 4.3 0.00 0.00 0.00 44 1016.8
20260502193600 46 300 1.7 6.1 0.00 0.00 0.00 42 1016.7